Wetterdaten: Dienstag, 01.04.2014
Datum Zeit Temperatur Luftfeuchte Luftdruck Regen Wind Richtung Richtung Taupunkt Windchill Windben
01.04.2014 00:00 3,2 C 78 % 1015,1 hPa 0,0 l/m 0,0 km/h (0 Bft) SW 225 -0,3 C 16,1 C 0,0 km/h (0 Bft)
01.04.2014 00:05 3,1 C 78 % 1015,1 hPa 0,0 l/m 0,0 km/h (0 Bft) SW 225 -0,4 C 16,1 C 0,0 km/h (0 Bft)
01.04.2014 00:08 3,1 C 78 % 1015,1 hPa 0,0 l/m 0,0 km/h (0 Bft) SW 225 -0,4 C 16,1 C 0,0 km/h (0 Bft)
01.04.2014 00:10 3,1 C 78 % 1015,1 hPa 0,0 l/m 0,0 km/h (0 Bft) SW 225 -0,4 C 16,1 C 0,0 km/h (0 Bft)
01.04.2014 00:15 3,1 C 78 % 1015,1 hPa 0,0 l/m 0,0 km/h (0 Bft) SW 225 -0,4 C 16,1 C 0,0 km/h (0 Bft)
01.04.2014 00:20 2,7 C 79 % 1015,1 hPa 0,0 l/m 0,0 km/h (0 Bft) SW 225 -0,6 C 16,1 C 0,0 km/h (0 Bft)
01.04.2014 00:25 2,9 C 79 % 1015,1 hPa 0,0 l/m 0,0 km/h (0 Bft) SW 225 -0,4 C 16,1 C 0,0 km/h (0 Bft)
01.04.2014 00:30 2,8 C 80 % 1015,1 hPa 0,0 l/m 0,0 km/h (0 Bft) SW 225 -0,3 C 16,1 C 0,0 km/h (0 Bft)
01.04.2014 00:35 2,7 C 80 % 1015,1 hPa 0,0 l/m 0,0 km/h (0 Bft) SW 225 -0,4 C 16,1 C 0,0 km/h (0 Bft)
01.04.2014 00:40 3,0 C 80 % 1015,1 hPa 0,0 l/m 0,0 km/h (0 Bft) SW 225 -0,1 C 16,1 C 0,0 km/h (0 Bft)
01.04.2014 00:45 2,9 C 81 % 1015,1 hPa 0,0 l/m 0,0 km/h (0 Bft) SW 225 -0,0 C 16,1 C 0,0 km/h (0 Bft)
01.04.2014 00:50 2,6 C 80 % 1015,1 hPa 0,0 l/m 0,0 km/h (0 Bft) SW 225 -0,5 C 16,1 C 0,0 km/h (0 Bft)
01.04.2014 00:55 2,5 C 81 % 1015,1 hPa 0,0 l/m 0,0 km/h (0 Bft) SW 225 -0,4 C 16,1 C 0,0 km/h (0 Bft)
01.04.2014 01:00 2,7 C 82 % 1015,1 hPa 0,0 l/m 0,0 km/h (0 Bft) SW 225 -0,1 C 16,1 C 0,0 km/h (0 Bft)
01.04.2014 01:05 2,4 C 82 % 1015,1 hPa 0,0 l/m 0,0 km/h (0 Bft) SW 225 -0,4 C 16,1 C 0,0 km/h (0 Bft)
01.04.2014 01:10 2,3 C 81 % 1014,9 hPa 0,0 l/m 0,0 km/h (0 Bft) SW 225 -0,6 C 16,1 C 0,0 km/h (0 Bft)
01.04.2014 01:15 2,4 C 82 % 1014,9 hPa 0,0 l/m 0,0 km/h (0 Bft) SW 225 -0,4 C 16,1 C 0,0 km/h (0 Bft)
01.04.2014 01:20 2,2 C 81 % 1014,9 hPa 0,0 l/m 0,0 km/h (0 Bft) SW 225 -0,7 C 16,1 C 0,0 km/h (0 Bft)
01.04.2014 01:25 2,3 C 82 % 1014,9 hPa 0,0 l/m 0,0 km/h (0 Bft) SW 225 -0,4 C 16,1 C 0,0 km/h (0 Bft)
01.04.2014 01:30 2,3 C 83 % 1014,9 hPa 0,0 l/m 0,0 km/h (0 Bft) SW 225 -0,3 C 16,1 C 0,0 km/h (0 Bft)
01.04.2014 01:35 2,3 C 83 % 1014,9 hPa 0,0 l/m 0,0 km/h (0 Bft) SW 225 -0,3 C 16,1 C 0,0 km/h (0 Bft)
01.04.2014 01:40 2,1 C 83 % 1014,9 hPa 0,0 l/m 0,0 km/h (0 Bft) SW 225 -0,5 C 16,1 C 0,0 km/h (0 Bft)
01.04.2014 01:45 1,9 C 83 % 1014,9 hPa 0,0 l/m 0,0 km/h (0 Bft) SW 225 -0,7 C 16,1 C 0,0 km/h (0 Bft)
01.04.2014 01:50 2,0 C 83 % 1014,9 hPa 0,0 l/m 0,0 km/h (0 Bft) SW 225 -0,6 C 16,1 C 0,0 km/h (0 Bft)
01.04.2014 01:55 1,9 C 83 % 1014,9 hPa 0,0 l/m 0,0 km/h (0 Bft) SW 225 -0,7 C 16,1 C 0,0 km/h (0 Bft)
01.04.2014 02:00 1,8 C 83 % 1014,9 hPa 0,0 l/m 0,0 km/h (0 Bft) SW 225 -0,8 C 16,1 C 0,0 km/h (0 Bft)
01.04.2014 02:05 1,7 C 83 % 1014,9 hPa 0,0 l/m 0,0 km/h (0 Bft) SW 225 -0,9 C 16,1 C 0,0 km/h (0 Bft)
01.04.2014 02:10 1,7 C 84 % 1014,8 hPa 0,0 l/m 0,0 km/h (0 Bft) SW 225 -0,7 C 16,1 C 0,0 km/h (0 Bft)
01.04.2014 02:15 1,9 C 84 % 1014,8 hPa 0,0 l/m 0,0 km/h (0 Bft) SW 225 -0,5 C 16,1 C 0,0 km/h (0 Bft)
01.04.2014 02:20 2,1 C 85 % 1014,8 hPa 0,0 l/m 0,0 km/h (0 Bft) SW 225 -0,2 C 16,1 C 0,0 km/h (0 Bft)
01.04.2014 02:25 1,9 C 85 % 1014,8 hPa 0,0 l/m 0,0 km/h (0 Bft) SW 225 -0,3 C 16,1 C 0,0 km/h (0 Bft)
01.04.2014 02:30 1,9 C 85 % 1014,9 hPa 0,0 l/m 0,0 km/h (0 Bft) SW 225 -0,3 C 16,1 C 0,0 km/h (0 Bft)
01.04.2014 02:35 2,4 C 85 % 1014,9 hPa 0,0 l/m 0,0 km/h (0 Bft) SW 225 0,1 C 16,1 C 0,0 km/h (0 Bft)
01.04.2014 02:40 2,2 C 85 % 1014,9 hPa 0,0 l/m 0,0 km/h (0 Bft) SW 225 -0,1 C 16,1 C 0,0 km/h (0 Bft)
01.04.2014 02:45 3,2 C 85 % 1014,9 hPa 0,0 l/m 0,0 km/h (0 Bft) SW 225 0,9 C 16,1 C 0,0 km/h (0 Bft)
01.04.2014 02:50 3,7 C 85 % 1015,1 hPa 0,0 l/m 0,0 km/h (0 Bft) SW 225 1,4 C 16,1 C 0,0 km/h (0 Bft)
01.04.2014 02:55 3,9 C 84 % 1015,1 hPa 0,0 l/m 0,0 km/h (0 Bft) SW 225 1,4 C 16,1 C 0,0 km/h (0 Bft)
01.04.2014 03:00 4,1 C 83 % 1015,1 hPa 0,0 l/m 0,0 km/h (0 Bft) SW 225 1,5 C 16,1 C 0,0 km/h (0 Bft)
01.04.2014 03:05 4,1 C 82 % 1015,1 hPa 0,0 l/m 0,0 km/h (0 Bft) SW 225 1,3 C 16,1 C 0,0 km/h (0 Bft)
01.04.2014 03:10 3,6 C 82 % 1015,2 hPa 0,0 l/m 0,0 km/h (0 Bft) SW 225 0,8 C 16,1 C 0,0 km/h (0 Bft)
01.04.2014 03:15 2,9 C 82 % 1015,2 hPa 0,0 l/m 0,0 km/h (0 Bft) SW 225 0,1 C 16,1 C 0,0 km/h (0 Bft)
01.04.2014 03:20 3,5 C 82 % 1015,2 hPa 0,0 l/m 0,0 km/h (0 Bft) SW 225 0,7 C 16,1 C 0,0 km/h (0 Bft)
01.04.2014 03:25 2,9 C 82 % 1015,2 hPa 0,0 l/m 0,0 km/h (0 Bft) SW 225 0,1 C 16,1 C 0,0 km/h (0 Bft)
01.04.2014 03:30 2,7 C 82 % 1015,1 hPa 0,0 l/m 0,0 km/h (0 Bft) SW 225 -0,1 C 16,1 C 0,0 km/h (0 Bft)
01.04.2014 03:35 2,9 C 82 % 1015,1 hPa 0,0 l/m 0,0 km/h (0 Bft) SW 225 0,1 C 16,1 C 0,0 km/h (0 Bft)
01.04.2014 03:40 2,6 C 82 % 1015,1 hPa 0,0 l/m 0,0 km/h (0 Bft) SW 225 -0,2 C 16,1 C 0,0 km/h (0 Bft)
01.04.2014 03:45 2,4 C 82 % 1015,1 hPa 0,0 l/m 0,0 km/h (0 Bft) SW 225 -0,4 C 16,1 C 0,0 km/h (0 Bft)
01.04.2014 03:50 2,3 C 82 % 1015,0 hPa 0,0 l/m 0,0 km/h (0 Bft) SW 225 -0,4 C 16,1 C 0,0 km/h (0 Bft)
01.04.2014 03:55 2,3 C 83 % 1015,0 hPa 0,0 l/m 0,0 km/h (0 Bft) SW 225 -0,3 C 16,1 C 0,0 km/h (0 Bft)
01.04.2014 04:00 2,1 C 83 % 1015,0 hPa 0,0 l/m 0,0 km/h (0 Bft) SW 225 -0,5 C 16,1 C 0,0 km/h (0 Bft)
01.04.2014 04:05 2,0 C 83 % 1015,0 hPa 0,0 l/m 0,0 km/h (0 Bft) SW 225 -0,6 C 16,1 C 0,0 km/h (0 Bft)
01.04.2014 04:10 2,0 C 83 % 1014,9 hPa 0,0 l/m 0,0 km/h (0 Bft) SW 225 -0,6 C 16,1 C 0,0 km/h (0 Bft)
01.04.2014 04:15 1,8 C 83 % 1014,9 hPa 0,0 l/m 0,0 km/h (0 Bft) SW 225 -0,8 C 16,1 C 0,0 km/h (0 Bft)
01.04.2014 04:20 2,0 C 83 % 1014,9 hPa 0,0 l/m 0,0 km/h (0 Bft) SW 225 -0,6 C 16,1 C 0,0 km/h (0 Bft)
01.04.2014 04:25 1,8 C 84 % 1014,9 hPa 0,0 l/m 0,0 km/h (0 Bft) SW 225 -0,6 C 16,1 C 0,0 km/h (0 Bft)
01.04.2014 04:30 1,7 C 84 % 1014,8 hPa 0,0 l/m 0,0 km/h (0 Bft) SW 225 -0,7 C 16,1 C 0,0 km/h (0 Bft)
01.04.2014 04:35 1,7 C 84 % 1014,8 hPa 0,0 l/m 0,0 km/h (0 Bft) SW 225 -0,7 C 16,1 C 0,0 km/h (0 Bft)
01.04.2014 04:40 1,5 C 84 % 1014,8 hPa 0,0 l/m 0,0 km/h (0 Bft) SW 225 -0,9 C 16,1 C 0,0 km/h (0 Bft)
01.04.2014 04:45 2,0 C 85 % 1014,8 hPa 0,0 l/m 0,0 km/h (0 Bft) SW 225 -0,3 C 16,1 C 0,0 km/h (0 Bft)
01.04.2014 04:50 1,8 C 85 % 1014,7 hPa 0,0 l/m 0,0 km/h (0 Bft) SW 225 -0,4 C 16,1 C 0,0 km/h (0 Bft)
01.04.2014 04:55 1,7 C 85 % 1014,7 hPa 0,0 l/m 0,0 km/h (0 Bft) SW 225 -0,5 C 16,1 C 0,0 km/h (0 Bft)
01.04.2014 05:00 1,6 C 85 % 1014,7 hPa 0,0 l/m 0,0 km/h (0 Bft) SW 225 -0,6 C 16,1 C 0,0 km/h (0 Bft)
01.04.2014 05:05 1,8 C 86 % 1014,7 hPa 0,0 l/m 0,0 km/h (0 Bft) SW 225 -0,3 C 16,1 C 0,0 km/h (0 Bft)
01.04.2014 05:10 1,7 C 86 % 1014,6 hPa 0,0 l/m 0,0 km/h (0 Bft) SW 225 -0,4 C 16,1 C 0,0 km/h (0 Bft)
01.04.2014 05:15 1,6 C 86 % 1014,6 hPa 0,0 l/m 0,0 km/h (0 Bft) SW 225 -0,5 C 16,1 C 0,0 km/h (0 Bft)
01.04.2014 05:20 1,6 C 86 % 1014,6 hPa 0,0 l/m 0,0 km/h (0 Bft) SW 225 -0,5 C 16,1 C 0,0 km/h (0 Bft)
01.04.2014 05:25 1,5 C 85 % 1014,6 hPa 0,0 l/m 0,0 km/h (0 Bft) SW 225 -0,7 C 16,1 C 0,0 km/h (0 Bft)
01.04.2014 05:30 1,3 C 85 % 1014,6 hPa 0,0 l/m 0,0 km/h (0 Bft) SW 225 -0,9 C 16,1 C 0,0 km/h (0 Bft)
01.04.2014 05:35 1,2 C 85 % 1014,6 hPa 0,0 l/m 0,0 km/h (0 Bft) SW 225 -1,0 C 16,1 C 0,0 km/h (0 Bft)
01.04.2014 05:40 1,4 C 85 % 1014,6 hPa 0,0 l/m 0,0 km/h (0 Bft) SW 225 -0,8 C 16,1 C 0,0 km/h (0 Bft)
01.04.2014 05:45 1,2 C 85 % 1014,6 hPa 0,0 l/m 0,0 km/h (0 Bft) SW 225 -1,0 C 16,1 C 0,0 km/h (0 Bft)
01.04.2014 05:50 1,3 C 86 % 1014,4 hPa 0,0 l/m 0,0 km/h (0 Bft) SW 225 -0,8 C 16,1 C 0,0 km/h (0 Bft)
01.04.2014 05:55 1,4 C 86 % 1014,4 hPa 0,0 l/m 0,0 km/h (0 Bft) SW 225 -0,7 C 16,1 C 0,0 km/h (0 Bft)
01.04.2014 06:00 1,1 C 86 % 1014,4 hPa 0,0 l/m 0,0 km/h (0 Bft) SW 225 -1,0 C 16,1 C 0,0 km/h (0 Bft)
01.04.2014 06:05 1,1 C 86 % 1014,4 hPa 0,0 l/m 0,0 km/h (0 Bft) SW 225 -1,0 C 16,1 C 0,0 km/h (0 Bft)
01.04.2014 06:10 1,1 C 86 % 1014,4 hPa 0,0 l/m 0,0 km/h (0 Bft) SW 225 -1,0 C 16,1 C 0,0 km/h (0 Bft)
01.04.2014 06:15 1,1 C 86 % 1014,4 hPa 0,0 l/m 0,0 km/h (0 Bft) SW 225 -1,0 C 16,1 C 0,0 km/h (0 Bft)
01.04.2014 06:20 1,2 C 88 % 1014,4 hPa 0,0 l/m 0,0 km/h (0 Bft) SW 225 -0,6 C 16,1 C 0,0 km/h (0 Bft)
01.04.2014 06:25 1,4 C 88 % 1014,4 hPa 0,0 l/m 0,0 km/h (0 Bft) SW 225 -0,4 C 16,1 C 0,0 km/h (0 Bft)
01.04.2014 06:30 1,7 C 89 % 1014,4 hPa 0,0 l/m 0,0 km/h (0 Bft) SW 225 0,1 C 16,1 C 0,0 km/h (0 Bft)
01.04.2014 06:35 1,3 C 88 % 1014,4 hPa 0,0 l/m 0,0 km/h (0 Bft) SW 225 -0,5 C 16,1 C 0,0 km/h (0 Bft)
01.04.2014 06:40 1,2 C 88 % 1014,4 hPa 0,0 l/m 0,0 km/h (0 Bft) SW 225 -0,6 C 16,1 C 0,0 km/h (0 Bft)
01.04.2014 06:45 1,2 C 88 % 1014,4 hPa 0,0 l/m 0,0 km/h (0 Bft) SW 225 -0,6 C 16,1 C 0,0 km/h (0 Bft)
01.04.2014 06:50 1,2 C 88 % 1014,2 hPa 0,0 l/m 0,0 km/h (0 Bft) SW 225 -0,6 C 16,1 C 0,0 km/h (0 Bft)
01.04.2014 06:55 1,2 C 88 % 1014,2 hPa 0,0 l/m 0,0 km/h (0 Bft) SW 225 -0,6 C 16,1 C 0,0 km/h (0 Bft)
01.04.2014 07:00 1,2 C 88 % 1014,2 hPa 0,0 l/m 0,0 km/h (0 Bft) SW 225 -0,6 C 16,1 C 0,0 km/h (0 Bft)
01.04.2014 07:05 1,6 C 89 % 1014,2 hPa 0,0 l/m 0,0 km/h (0 Bft) SW 225 -0,0 C 16,1 C 0,0 km/h (0 Bft)
01.04.2014 07:10 1,5 C 89 % 1014,3 hPa 0,0 l/m 0,0 km/h (0 Bft) SW 225 -0,1 C 16,1 C 0,0 km/h (0 Bft)
01.04.2014 07:15 1,8 C 89 % 1014,3 hPa 0,0 l/m 0,0 km/h (0 Bft) SW 225 0,2 C 16,1 C 0,0 km/h (0 Bft)
01.04.2014 07:20 1,8 C 89 % 1014,3 hPa 0,0 l/m 0,0 km/h (0 Bft) SW 225 0,2 C 16,1 C 0,0 km/h (0 Bft)
01.04.2014 07:25 2,0 C 88 % 1014,3 hPa 0,0 l/m 0,0 km/h (0 Bft) SW 225 0,2 C 16,1 C 0,0 km/h (0 Bft)
01.04.2014 07:30 1,9 C 88 % 1014,4 hPa 0,0 l/m 0,0 km/h (0 Bft) SW 225 0,1 C 16,1 C 0,0 km/h (0 Bft)
01.04.2014 07:35 2,0 C 88 % 1014,4 hPa 0,0 l/m 0,0 km/h (0 Bft) SW 225 0,2 C 16,1 C 0,0 km/h (0 Bft)
01.04.2014 07:40 2,2 C 88 % 1014,4 hPa 0,0 l/m 0,0 km/h (0 Bft) SW 225 0,4 C 16,1 C 0,0 km/h (0 Bft)
01.04.2014 07:45 2,6 C 88 % 1014,4 hPa 0,0 l/m 0,0 km/h (0 Bft) SW 225 0,8 C 16,1 C 0,0 km/h (0 Bft)
01.04.2014 07:50 2,8 C 88 % 1014,6 hPa 0,0 l/m 0,0 km/h (0 Bft) SW 225 1,0 C 16,1 C 0,0 km/h (0 Bft)
01.04.2014 07:55 3,0 C 86 % 1014,6 hPa 0,0 l/m 0,0 km/h (0 Bft) SW 225 0,9 C 16,1 C 0,0 km/h (0 Bft)
01.04.2014 08:00 3,5 C 86 % 1014,6 hPa 0,0 l/m 0,0 km/h (0 Bft) SW 225 1,4 C 16,1 C 0,0 km/h (0 Bft)
01.04.2014 08:05 3,9 C 86 % 1014,6 hPa 0,0 l/m 0,0 km/h (0 Bft) SW 225 1,8 C 16,1 C 0,0 km/h (0 Bft)
01.04.2014 08:10 4,1 C 85 % 1014,7 hPa 0,0 l/m 0,0 km/h (0 Bft) SW 225 1,8 C 16,1 C 0,0 km/h (0 Bft)
01.04.2014 08:15 4,6 C 85 % 1014,7 hPa 0,0 l/m 0,0 km/h (0 Bft) SW 225 2,3 C 16,1 C 0,0 km/h (0 Bft)
01.04.2014 08:20 5,3 C 84 % 1014,7 hPa 0,0 l/m 0,0 km/h (0 Bft) SW 225 2,8 C 16,1 C 0,0 km/h (0 Bft)
01.04.2014 08:25 7,2 C 82 % 1014,7 hPa 0,0 l/m 0,0 km/h (0 Bft) SW 225 4,3 C 16,1 C 0,0 km/h (0 Bft)
01.04.2014 08:30 7,7 C 80 % 1014,8 hPa 0,0 l/m 0,0 km/h (0 Bft) SW 225 4,5 C 16,1 C 0,0 km/h (0 Bft)
01.04.2014 08:35 8,8 C 78 % 1014,8 hPa 0,0 l/m 0,0 km/h (0 Bft) SW 225 5,2 C 16,1 C 0,0 km/h (0 Bft)
01.04.2014 08:40 8,8 C 75 % 1014,8 hPa 0,0 l/m 0,0 km/h (0 Bft) SW 225 4,6 C 16,1 C 0,0 km/h (0 Bft)
01.04.2014 08:45 9,1 C 73 % 1014,8 hPa 0,0 l/m 0,0 km/h (0 Bft) SW 225 4,5 C 16,1 C 0,0 km/h (0 Bft)
01.04.2014 08:50 9,2 C 72 % 1014,9 hPa 0,0 l/m 0,0 km/h (0 Bft) SW 225 4,4 C 16,1 C 0,0 km/h (0 Bft)
01.04.2014 08:55 9,3 C 72 % 1014,9 hPa 0,0 l/m 0,0 km/h (0 Bft) SW 225 4,5 C 16,1 C 0,0 km/h (0 Bft)
01.04.2014 09:00 9,2 C 70 % 1014,9 hPa 0,0 l/m 0,0 km/h (0 Bft) SW 225 4,0 C 16,1 C 0,0 km/h (0 Bft)
01.04.2014 09:05 10,2 C 67 % 1014,9 hPa 0,0 l/m 0,0 km/h (0 Bft) SW 225 4,4 C 16,1 C 0,0 km/h (0 Bft)
01.04.2014 09:10 11,2 C 67 % 1014,9 hPa 0,0 l/m 0,0 km/h (0 Bft) SW 225 5,3 C 16,1 C 0,0 km/h (0 Bft)
01.04.2014 09:15 12,3 C 65 % 1014,9 hPa 0,0 l/m 0,0 km/h (0 Bft) SW 225 5,9 C 16,1 C 0,0 km/h (0 Bft)
01.04.2014 09:20 13,0 C 60 % 1014,9 hPa 0,0 l/m 0,0 km/h (0 Bft) SW 225 5,4 C 16,1 C 0,0 km/h (0 Bft)
01.04.2014 09:25 14,3 C 60 % 1014,9 hPa 0,0 l/m 0,0 km/h (0 Bft) SW 225 6,6 C 16,1 C 0,0 km/h (0 Bft)
01.04.2014 09:30 14,6 C 59 % 1016,0 hPa 0,0 l/m 0,0 km/h (0 Bft) SW 225 6,7 C 16,1 C 0,0 km/h (0 Bft)
01.04.2014 09:35 15,0 C 58 % 1016,0 hPa 0,0 l/m 0,0 km/h (0 Bft) SW 225 6,8 C 16,1 C 0,0 km/h (0 Bft)
01.04.2014 09:40 15,3 C 57 % 1016,0 hPa 0,0 l/m 0,0 km/h (0 Bft) SW 225 6,8 C 16,1 C 0,0 km/h (0 Bft)
01.04.2014 09:45 15,3 C 54 % 1016,0 hPa 0,0 l/m 0,0 km/h (0 Bft) SW 225 6,0 C 16,1 C 0,0 km/h (0 Bft)
01.04.2014 09:50 14,8 C 53 % 1015,9 hPa 0,0 l/m 0,0 km/h (0 Bft) SW 225 5,3 C 16,1 C 0,0 km/h (0 Bft)
01.04.2014 09:55 15,3 C 52 % 1015,9 hPa 0,0 l/m 0,0 km/h (0 Bft) SW 225 5,5 C 16,1 C 0,0 km/h (0 Bft)
01.04.2014 10:00 15,6 C 52 % 1015,9 hPa 0,0 l/m 0,0 km/h (0 Bft) SW 225 5,8 C 16,1 C 0,0 km/h (0 Bft)
01.04.2014 10:03 16,0 C 50 % 1015,9 hPa 0,0 l/m 0,0 km/h (0 Bft) SW 225 5,6 C 16,1 C 0,0 km/h (0 Bft)
01.04.2014 10:05 16,0 C 50 % 1015,9 hPa 0,0 l/m 0,0 km/h (0 Bft) SW 225 5,6 C 16,1 C 0,0 km/h (0 Bft)
01.04.2014 10:10 15,9 C 49 % 1015,9 hPa 0,0 l/m 0,0 km/h (0 Bft) SW 225 5,2 C 16,1 C 0,0 km/h (0 Bft)
01.04.2014 10:15 16,6 C 49 % 1015,9 hPa 0,0 l/m 0,0 km/h (0 Bft) SW 225 5,8 C 16,1 C 0,0 km/h (0 Bft)
01.04.2014 10:20 17,6 C 47 % 1015,9 hPa 0,0 l/m 0,0 km/h (0 Bft) SW 225 6,2 C 16,1 C 0,0 km/h (0 Bft)
01.04.2014 10:25 18,4 C 44 % 1015,9 hPa 0,0 l/m 0,0 km/h (0 Bft) SW 225 5,9 C 16,1 C 0,0 km/h (0 Bft)
01.04.2014 10:30 18,5 C 41 % 1015,9 hPa 0,0 l/m 0,0 km/h (0 Bft) SW 225 5,0 C 16,1 C 0,0 km/h (0 Bft)
01.04.2014 10:35 18,3 C 41 % 1015,9 hPa 0,0 l/m 0,0 km/h (0 Bft) SW 225 4,8 C 16,1 C 0,0 km/h (0 Bft)
01.04.2014 10:40 18,5 C 40 % 1015,9 hPa 0,0 l/m 0,0 km/h (0 Bft) SW 225 4,6 C 16,1 C 0,0 km/h (0 Bft)
01.04.2014 10:45 19,7 C 39 % 1015,9 hPa 0,0 l/m 0,0 km/h (0 Bft) SW 225 5,4 C 16,1 C 0,0 km/h (0 Bft)
01.04.2014 10:50 18,5 C 39 % 1016,0 hPa 0,0 l/m 0,0 km/h (0 Bft) SW 225 4,3 C 16,1 C 0,0 km/h (0 Bft)
01.04.2014 10:55 17,6 C 39 % 1016,0 hPa 0,0 l/m 0,0 km/h (0 Bft) SW 225 3,5 C 16,1 C 0,0 km/h (0 Bft)
01.04.2014 11:00 17,9 C 39 % 1016,0 hPa 0,0 l/m 0,0 km/h (0 Bft) SW 225 3,8 C 16,1 C 0,0 km/h (0 Bft)
01.04.2014 11:05 18,6 C 37 % 1016,0 hPa 0,0 l/m 0,0 km/h (0 Bft) SW 225 3,6 C 16,1 C 0,0 km/h (0 Bft)
01.04.2014 11:10 19,0 C 37 % 1016,0 hPa 0,0 l/m 0,0 km/h (0 Bft) SW 225 4,0 C 16,1 C 0,0 km/h (0 Bft)
01.04.2014 11:15 18,7 C 36 % 1016,0 hPa 0,0 l/m 0,0 km/h (0 Bft) SW 225 3,3 C 16,1 C 0,0 km/h (0 Bft)
01.04.2014 11:20 18,9 C 36 % 1016,0 hPa 0,0 l/m 0,0 km/h (0 Bft) SW 225 3,5 C 16,1 C 0,0 km/h (0 Bft)
01.04.2014 11:25 19,0 C 36 % 1016,0 hPa 0,0 l/m 0,0 km/h (0 Bft) SW 225 3,6 C 16,1 C 0,0 km/h (0 Bft)
01.04.2014 11:30 19,1 C 36 % 1016,0 hPa 0,0 l/m 0,0 km/h (0 Bft) SW 225 3,7 C 16,1 C 0,0 km/h (0 Bft)
01.04.2014 11:35 18,8 C 35 % 1016,0 hPa 0,0 l/m 0,0 km/h (0 Bft) SW 225 3,0 C 16,1 C 0,0 km/h (0 Bft)
01.04.2014 11:40 19,7 C 36 % 1016,0 hPa 0,0 l/m 0,0 km/h (0 Bft) SW 225 4,2 C 16,1 C 0,0 km/h (0 Bft)
01.04.2014 11:45 19,5 C 35 % 1016,0 hPa 0,0 l/m 0,0 km/h (0 Bft) SW 225 3,6 C 16,1 C 0,0 km/h (0 Bft)
01.04.2014 11:50 20,2 C 34 % 1016,1 hPa 0,0 l/m 0,0 km/h (0 Bft) SW 225 3,8 C 16,1 C 0,0 km/h (0 Bft)
01.04.2014 11:55 19,9 C 33 % 1016,1 hPa 0,0 l/m 0,0 km/h (0 Bft) SW 225 3,2 C 16,1 C 0,0 km/h (0 Bft)
01.04.2014 12:00 18,9 C 32 % 1016,1 hPa 0,0 l/m 0,0 km/h (0 Bft) SW 225 1,8 C 16,1 C 0,0 km/h (0 Bft)
01.04.2014 12:05 19,6 C 33 % 1016,1 hPa 0,0 l/m 0,0 km/h (0 Bft) SW 225 2,9 C 16,1 C 0,0 km/h (0 Bft)
01.04.2014 12:10 20,6 C 33 % 1015,9 hPa 0,0 l/m 0,0 km/h (0 Bft) SW 225 3,8 C 16,1 C 0,0 km/h (0 Bft)
01.04.2014 12:15 20,0 C 32 % 1015,9 hPa 0,0 l/m 0,0 km/h (0 Bft) SW 225 2,8 C 16,1 C 0,0 km/h (0 Bft)
01.04.2014 12:20 19,1 C 32 % 1015,9 hPa 0,0 l/m 0,0 km/h (0 Bft) SW 225 2,0 C 16,1 C 0,0 km/h (0 Bft)
01.04.2014 12:25 19,6 C 33 % 1015,9 hPa 0,0 l/m 0,0 km/h (0 Bft) SW 225 2,9 C 16,1 C 0,0 km/h (0 Bft)
01.04.2014 12:30 19,7 C 34 % 1015,9 hPa 0,0 l/m 0,0 km/h (0 Bft) SW 225 3,4 C 16,1 C 0,0 km/h (0 Bft)
01.04.2014 12:35 19,8 C 33 % 1015,9 hPa 0,0 l/m 0,0 km/h (0 Bft) SW 225 3,1 C 16,1 C 0,0 km/h (0 Bft)
01.04.2014 12:40 19,9 C 33 % 1015,9 hPa 0,0 l/m 0,0 km/h (0 Bft) SW 225 3,2 C 16,1 C 0,0 km/h (0 Bft)
01.04.2014 12:45 20,3 C 32 % 1015,9 hPa 0,0 l/m 0,0 km/h (0 Bft) SW 225 3,1 C 16,1 C 0,0 km/h (0 Bft)
01.04.2014 12:50 20,2 C 32 % 1015,7 hPa 0,0 l/m 0,0 km/h (0 Bft) SW 225 3,0 C 16,1 C 0,0 km/h (0 Bft)
01.04.2014 12:55 19,5 C 33 % 1015,7 hPa 0,0 l/m 0,0 km/h (0 Bft) SW 225 2,8 C 16,1 C 0,0 km/h (0 Bft)
01.04.2014 13:00 19,4 C 33 % 1015,7 hPa 0,0 l/m 0,0 km/h (0 Bft) SW 225 2,7 C 16,1 C 0,0 km/h (0 Bft)
01.04.2014 13:05 20,6 C 33 % 1015,7 hPa 0,0 l/m 0,0 km/h (0 Bft) SW 225 3,8 C 16,1 C 0,0 km/h (0 Bft)
01.04.2014 13:10 20,3 C 32 % 1015,8 hPa 0,0 l/m 0,0 km/h (0 Bft) SW 225 3,1 C 16,1 C 0,0 km/h (0 Bft)
01.04.2014 13:15 20,1 C 32 % 1015,8 hPa 0,0 l/m 0,0 km/h (0 Bft) SW 225 2,9 C 16,1 C 0,0 km/h (0 Bft)
01.04.2014 13:20 19,8 C 32 % 1015,8 hPa 0,0 l/m 0,0 km/h (0 Bft) SW 225 2,6 C 16,1 C 0,0 km/h (0 Bft)
01.04.2014 13:25 19,7 C 32 % 1015,8 hPa 0,0 l/m 0,0 km/h (0 Bft) SW 225 2,5 C 16,1 C 0,0 km/h (0 Bft)
01.04.2014 13:30 19,4 C 32 % 1015,8 hPa 0,0 l/m 0,0 km/h (0 Bft) SW 225 2,3 C 16,1 C 0,0 km/h (0 Bft)
01.04.2014 13:35 19,7 C 32 % 1015,8 hPa 0,0 l/m 0,0 km/h (0 Bft) SW 225 2,5 C 16,1 C 0,0 km/h (0 Bft)
01.04.2014 13:40 20,4 C 32 % 1015,8 hPa 0,0 l/m 0,0 km/h (0 Bft) SW 225 3,2 C 16,1 C 0,0 km/h (0 Bft)
01.04.2014 13:45 20,9 C 33 % 1015,8 hPa 0,0 l/m 0,0 km/h (0 Bft) SW 225 4,0 C 16,1 C 0,0 km/h (0 Bft)
01.04.2014 13:50 19,9 C 32 % 1015,6 hPa 0,0 l/m 0,0 km/h (0 Bft) SW 225 2,7 C 16,1 C 0,0 km/h (0 Bft)
01.04.2014 13:55 20,1 C 32 % 1015,6 hPa 0,0 l/m 0,0 km/h (0 Bft) SW 225 2,9 C 16,1 C 0,0 km/h (0 Bft)
01.04.2014 14:00 19,5 C 32 % 1015,6 hPa 0,0 l/m 0,0 km/h (0 Bft) SW 225 2,4 C 16,1 C 0,0 km/h (0 Bft)
01.04.2014 14:05 19,2 C 33 % 1015,6 hPa 0,0 l/m 0,0 km/h (0 Bft) SW 225 2,5 C 16,1 C 0,0 km/h (0 Bft)
01.04.2014 14:10 18,9 C 35 % 1015,3 hPa 0,0 l/m 0,0 km/h (0 Bft) SW 225 3,1 C 16,1 C 0,0 km/h (0 Bft)
01.04.2014 14:15 19,5 C 34 % 1015,3 hPa 0,0 l/m 0,0 km/h (0 Bft) SW 225 3,2 C 16,1 C 0,0 km/h (0 Bft)
01.04.2014 14:20 20,0 C 35 % 1015,3 hPa 0,0 l/m 0,0 km/h (0 Bft) SW 225 4,1 C 16,1 C 0,0 km/h (0 Bft)
01.04.2014 14:25 19,3 C 33 % 1015,3 hPa 0,0 l/m 0,0 km/h (0 Bft) SW 225 2,6 C 16,1 C 0,0 km/h (0 Bft)
01.04.2014 14:30 19,9 C 34 % 1015,1 hPa 0,0 l/m 0,0 km/h (0 Bft) SW 225 3,6 C 16,1 C 0,0 km/h (0 Bft)
01.04.2014 14:35 19,0 C 35 % 1015,1 hPa 0,0 l/m 0,0 km/h (0 Bft) SW 225 3,2 C 16,1 C 0,0 km/h (0 Bft)
01.04.2014 14:40 19,4 C 34 % 1015,1 hPa 0,0 l/m 0,0 km/h (0 Bft) SW 225 3,1 C 16,1 C 0,0 km/h (0 Bft)
01.04.2014 14:45 19,7 C 33 % 1015,1 hPa 0,0 l/m 0,0 km/h (0 Bft) SW 225 3,0 C 16,1 C 0,0 km/h (0 Bft)
01.04.2014 14:50 20,1 C 33 % 1014,9 hPa 0,0 l/m 0,0 km/h (0 Bft) SW 225 3,3 C 16,1 C 0,0 km/h (0 Bft)
01.04.2014 14:55 20,0 C 33 % 1014,9 hPa 0,0 l/m 0,0 km/h (0 Bft) SW 225 3,2 C 16,1 C 0,0 km/h (0 Bft)
01.04.2014 15:00 19,6 C 33 % 1014,9 hPa 0,0 l/m 0,0 km/h (0 Bft) SW 225 2,9 C 16,1 C 0,0 km/h (0 Bft)
01.04.2014 15:03 19,2 C 32 % 1014,9 hPa 0,0 l/m 0,0 km/h (0 Bft) SW 225 2,1 C 16,1 C 0,0 km/h (0 Bft)
01.04.2014 15:05 19,2 C 32 % 1014,9 hPa 0,0 l/m 0,0 km/h (0 Bft) SW 225 2,1 C 16,1 C 0,0 km/h (0 Bft)
01.04.2014 15:10 19,4 C 33 % 1014,7 hPa 0,0 l/m 0,0 km/h (0 Bft) SW 225 2,7 C 16,1 C 0,0 km/h (0 Bft)
01.04.2014 15:15 18,9 C 32 % 1014,7 hPa 0,0 l/m 0,0 km/h (0 Bft) SW 225 1,8 C 16,1 C 0,0 km/h (0 Bft)
01.04.2014 15:20 19,2 C 33 % 1014,7 hPa 0,0 l/m 0,0 km/h (0 Bft) SW 225 2,5 C 16,1 C 0,0 km/h (0 Bft)
01.04.2014 15:25 19,0 C 32 % 1014,7 hPa 0,0 l/m 0,0 km/h (0 Bft) SW 225 1,9 C 16,1 C 0,0 km/h (0 Bft)
01.04.2014 15:30 19,1 C 32 % 1014,4 hPa 0,0 l/m 0,0 km/h (0 Bft) SW 225 2,0 C 16,1 C 0,0 km/h (0 Bft)
01.04.2014 15:35 18,9 C 32 % 1014,4 hPa 0,0 l/m 0,0 km/h (0 Bft) SW 225 1,8 C 16,1 C 0,0 km/h (0 Bft)
01.04.2014 15:40 19,2 C 32 % 1014,4 hPa 0,0 l/m 0,0 km/h (0 Bft) SW 225 2,1 C 16,1 C 0,0 km/h (0 Bft)
01.04.2014 15:45 19,1 C 31 % 1014,4 hPa 0,0 l/m 0,0 km/h (0 Bft) SW 225 1,6 C 16,1 C 0,0 km/h (0 Bft)
01.04.2014 15:50 18,9 C 31 % 1014,2 hPa 0,0 l/m 0,0 km/h (0 Bft) SW 225 1,4 C 16,1 C 0,0 km/h (0 Bft)
01.04.2014 15:55 18,5 C 31 % 1014,2 hPa 0,0 l/m 0,0 km/h (0 Bft) SW 225 1,1 C 16,1 C 0,0 km/h (0 Bft)
01.04.2014 15:58 18,8 C 31 % 1014,2 hPa 0,0 l/m 0,0 km/h (0 Bft) SW 225 1,3 C 0,0 C 0,0 km/h (0 Bft)
01.04.2014 16:03 18,9 C 31 % 1013,8 hPa 0,0 l/m 0,0 km/h (0 Bft) SW 225 1,4 C 0,0 C 0,0 km/h (0 Bft)
01.04.2014 16:08 18,8 C 30 % 1013,8 hPa 0,0 l/m 0,0 km/h (0 Bft) SW 225 0,9 C 0,0 C 0,0 km/h (0 Bft)
01.04.2014 16:13 18,3 C 30 % 1013,8 hPa 0,0 l/m 0,0 km/h (0 Bft) SW 225 0,4 C 0,0 C 0,0 km/h (0 Bft)
01.04.2014 16:18 18,3 C 31 % 1013,8 hPa 0,0 l/m 0,0 km/h (0 Bft) SW 225 0,9 C 0,0 C 0,0 km/h (0 Bft)
01.04.2014 16:23 18,6 C 31 % 1013,6 hPa 0,0 l/m 0,0 km/h (0 Bft) SW 225 1,1 C 0,0 C 0,0 km/h (0 Bft)
01.04.2014 16:28 18,7 C 31 % 1013,6 hPa 0,0 l/m 0,0 km/h (0 Bft) SW 225 1,2 C 0,0 C 0,0 km/h (0 Bft)
01.04.2014 16:33 18,7 C 31 % 1013,6 hPa 0,0 l/m 0,0 km/h (0 Bft) SW 225 1,2 C 0,0 C 0,0 km/h (0 Bft)
01.04.2014 16:38 18,5 C 32 % 1013,6 hPa 0,0 l/m 0,0 km/h (0 Bft) SW 225 1,5 C 0,0 C 0,0 km/h (0 Bft)
01.04.2014 16:43 18,2 C 32 % 1013,0 hPa 0,0 l/m 0,0 km/h (0 Bft) SW 225 1,2 C 0,0 C 0,0 km/h (0 Bft)
01.04.2014 16:48 18,0 C 32 % 1013,0 hPa 0,0 l/m 0,0 km/h (0 Bft) SW 225 1,1 C 0,0 C 0,0 km/h (0 Bft)
01.04.2014 16:53 17,7 C 32 % 1013,0 hPa 0,0 l/m 0,0 km/h (0 Bft) SW 225 0,8 C 0,0 C 0,0 km/h (0 Bft)
01.04.2014 16:58 17,4 C 32 % 1013,0 hPa 0,0 l/m 0,0 km/h (0 Bft) SW 225 0,5 C 0,0 C 0,0 km/h (0 Bft)
01.04.2014 17:03 17,5 C 32 % 1012,9 hPa 0,0 l/m 0,0 km/h (0 Bft) SW 225 0,6 C 0,0 C 0,0 km/h (0 Bft)
01.04.2014 17:08 17,4 C 32 % 1012,9 hPa 0,0 l/m 0,0 km/h (0 Bft) SW 225 0,5 C 0,0 C 0,0 km/h (0 Bft)
01.04.2014 17:13 17,2 C 33 % 1012,9 hPa 0,0 l/m 0,0 km/h (0 Bft) SW 225 0,8 C 0,0 C 0,0 km/h (0 Bft)
01.04.2014 17:18 16,9 C 33 % 1012,9 hPa 0,0 l/m 0,0 km/h (0 Bft) SW 225 0,5 C 0,0 C 0,0 km/h (0 Bft)
01.04.2014 17:23 16,8 C 33 % 1012,8 hPa 0,0 l/m 0,0 km/h (0 Bft) SW 225 0,4 C 0,0 C 0,0 km/h (0 Bft)
01.04.2014 17:28 16,8 C 33 % 1012,8 hPa 0,0 l/m 0,0 km/h (0 Bft) SW 225 0,4 C 0,0 C 0,0 km/h (0 Bft)
01.04.2014 17:33 16,8 C 34 % 1012,8 hPa 0,0 l/m 0,0 km/h (0 Bft) SW 225 0,9 C 0,0 C 0,0 km/h (0 Bft)
01.04.2014 17:38 16,7 C 33 % 1012,8 hPa 0,0 l/m 0,0 km/h (0 Bft) SW 225 0,4 C 0,0 C 0,0 km/h (0 Bft)
01.04.2014 17:43 16,7 C 33 % 1012,6 hPa 0,0 l/m 0,0 km/h (0 Bft) SW 225 0,4 C 0,0 C 0,0 km/h (0 Bft)
01.04.2014 17:48 16,5 C 32 % 1012,6 hPa 0,0 l/m 0,0 km/h (0 Bft) SW 225 -0,2 C 0,0 C 0,0 km/h (0 Bft)
01.04.2014 17:53 16,4 C 33 % 1012,6 hPa 0,0 l/m 0,0 km/h (0 Bft) SW 225 0,1 C 0,0 C 0,0 km/h (0 Bft)
01.04.2014 17:58 16,3 C 33 % 1012,6 hPa 0,0 l/m 0,0 km/h (0 Bft) SW 225 0,0 C 0,0 C 0,0 km/h (0 Bft)
01.04.2014 18:03 16,2 C 34 % 1012,8 hPa 0,0 l/m 0,0 km/h (0 Bft) SW 225 0,3 C 0,0 C 0,0 km/h (0 Bft)
01.04.2014 18:08 16,0 C 34 % 1012,8 hPa 0,0 l/m 0,0 km/h (0 Bft) SW 225 0,2 C 0,0 C 0,0 km/h (0 Bft)
01.04.2014 18:13 15,8 C 33 % 1012,8 hPa 0,0 l/m 0,0 km/h (0 Bft) SW 225 -0,4 C 0,0 C 0,0 km/h (0 Bft)
01.04.2014 18:18 15,9 C 32 % 1012,8 hPa 0,0 l/m 0,0 km/h (0 Bft) SW 225 -0,8 C 0,0 C 0,0 km/h (0 Bft)
01.04.2014 18:23 15,7 C 33 % 1012,9 hPa 0,0 l/m 0,0 km/h (0 Bft) SW 225 -0,5 C 0,0 C 0,0 km/h (0 Bft)
01.04.2014 18:28 15,5 C 33 % 1012,9 hPa 0,0 l/m 0,0 km/h (0 Bft) SW 225 -0,7 C 0,0 C 0,0 km/h (0 Bft)
01.04.2014 18:33 15,2 C 33 % 1012,9 hPa 0,0 l/m 0,0 km/h (0 Bft) SW 225 -1,0 C 0,0 C 0,0 km/h (0 Bft)
01.04.2014 18:38 15,0 C 33 % 1012,9 hPa 0,0 l/m 0,0 km/h (0 Bft) SW 225 -1,1 C 0,0 C 0,0 km/h (0 Bft)
01.04.2014 18:43 14,8 C 33 % 1012,9 hPa 0,0 l/m 0,0 km/h (0 Bft) SW 225 -1,3 C 0,0 C 0,0 km/h (0 Bft)
01.04.2014 18:48 14,2 C 34 % 1012,9 hPa 0,0 l/m 0,0 km/h (0 Bft) SW 225 -1,4 C 0,0 C 0,0 km/h (0 Bft)
01.04.2014 18:53 14,0 C 35 % 1012,9 hPa 0,0 l/m 0,0 km/h (0 Bft) SW 225 -1,2 C 0,0 C 0,0 km/h (0 Bft)
01.04.2014 18:58 13,7 C 38 % 1012,9 hPa 0,0 l/m 0,0 km/h (0 Bft) SW 225 -0,4 C 0,0 C 0,0 km/h (0 Bft)
01.04.2014 19:03 13,5 C 40 % 1012,9 hPa 0,0 l/m 0,0 km/h (0 Bft) SW 225 0,2 C 0,0 C 0,0 km/h (0 Bft)
01.04.2014 19:08 13,5 C 42 % 1012,9 hPa 0,0 l/m 0,0 km/h (0 Bft) SW 225 0,8 C 0,0 C 0,0 km/h (0 Bft)
01.04.2014 19:13 13,4 C 44 % 1012,9 hPa 0,0 l/m 0,0 km/h (0 Bft) SW 225 1,4 C 0,0 C 0,0 km/h (0 Bft)
01.04.2014 19:18 12,7 C 46 % 1012,9 hPa 0,0 l/m 0,0 km/h (0 Bft) SW 225 1,4 C 0,0 C 0,0 km/h (0 Bft)
01.04.2014 19:23 12,8 C 48 % 1013,0 hPa 0,0 l/m 0,0 km/h (0 Bft) SW 225 2,1 C 0,0 C 0,0 km/h (0 Bft)
01.04.2014 19:28 12,7 C 49 % 1013,0 hPa 0,0 l/m 0,0 km/h (0 Bft) SW 225 2,3 C 0,0 C 0,0 km/h (0 Bft)
01.04.2014 19:33 12,6 C 51 % 1013,0 hPa 0,0 l/m 0,0 km/h (0 Bft) SW 225 2,7 C 0,0 C 0,0 km/h (0 Bft)
01.04.2014 19:38 12,1 C 53 % 1013,0 hPa 0,0 l/m 0,0 km/h (0 Bft) SW 225 2,8 C 0,0 C 0,0 km/h (0 Bft)
01.04.2014 19:43 11,9 C 54 % 1013,1 hPa 0,0 l/m 0,0 km/h (0 Bft) SW 225 2,9 C 0,0 C 0,0 km/h (0 Bft)
01.04.2014 19:48 11,6 C 55 % 1013,1 hPa 0,0 l/m 0,0 km/h (0 Bft) SW 225 2,9 C 0,0 C 0,0 km/h (0 Bft)
01.04.2014 19:53 11,4 C 56 % 1013,1 hPa 0,0 l/m 0,0 km/h (0 Bft) SW 225 2,9 C 0,0 C 0,0 km/h (0 Bft)
01.04.2014 19:58 11,2 C 56 % 1013,1 hPa 0,0 l/m 0,0 km/h (0 Bft) SW 225 2,8 C 0,0 C 0,0 km/h (0 Bft)
01.04.2014 20:03 11,1 C 56 % 1013,2 hPa 0,0 l/m 0,0 km/h (0 Bft) SW 225 2,7 C 0,0 C 0,0 km/h (0 Bft)
01.04.2014 20:08 11,2 C 57 % 1013,2 hPa 0,0 l/m 0,0 km/h (0 Bft) SW 225 3,0 C 0,0 C 0,0 km/h (0 Bft)
01.04.2014 20:13 10,8 C 57 % 1013,2 hPa 0,0 l/m 0,0 km/h (0 Bft) SW 225 2,6 C 0,0 C 0,0 km/h (0 Bft)
01.04.2014 20:18 10,0 C 59 % 1013,2 hPa 0,0 l/m 0,0 km/h (0 Bft) SW 225 2,4 C 0,0 C 0,0 km/h (0 Bft)
01.04.2014 20:23 9,9 C 60 % 1013,4 hPa 0,0 l/m 0,0 km/h (0 Bft) SW 225 2,5 C 0,0 C 0,0 km/h (0 Bft)
01.04.2014 20:28 10,1 C 59 % 1013,4 hPa 0,0 l/m 0,0 km/h (0 Bft) SW 225 2,5 C 0,0 C 0,0 km/h (0 Bft)
01.04.2014 20:33 10,2 C 59 % 1013,4 hPa 0,0 l/m 0,0 km/h (0 Bft) SW 225 2,6 C 0,0 C 0,0 km/h (0 Bft)
01.04.2014 20:38 9,4 C 61 % 1013,4 hPa 0,0 l/m 0,0 km/h (0 Bft) SW 225 2,3 C 0,0 C 0,0 km/h (0 Bft)
01.04.2014 20:43 9,8 C 61 % 1013,3 hPa 0,0 l/m 0,0 km/h (0 Bft) SW 225 2,6 C 0,0 C 0,0 km/h (0 Bft)
01.04.2014 20:48 9,5 C 62 % 1013,3 hPa 0,0 l/m 0,0 km/h (0 Bft) SW 225 2,6 C 0,0 C 0,0 km/h (0 Bft)
01.04.2014 20:53 9,4 C 63 % 1013,3 hPa 0,0 l/m 0,0 km/h (0 Bft) SW 225 2,7 C 0,0 C 0,0 km/h (0 Bft)
01.04.2014 20:58 8,9 C 64 % 1013,3 hPa 0,0 l/m 0,0 km/h (0 Bft) SW 225 2,5 C 0,0 C 0,0 km/h (0 Bft)
01.04.2014 21:03 8,7 C 65 % 1013,5 hPa 0,0 l/m 0,0 km/h (0 Bft) SW 225 2,5 C 0,0 C 0,0 km/h (0 Bft)
01.04.2014 21:09 8,7 C 66 % 1013,5 hPa 0,0 l/m 0,0 km/h (0 Bft) SW 225 2,7 C 0,0 C 0,0 km/h (0 Bft)
01.04.2014 21:10 8,7 C 66 % 1013,5 hPa 0,0 l/m 0,0 km/h (0 Bft) SW 225 2,7 C 0,0 C 0,0 km/h (0 Bft)
01.04.2014 21:15 8,7 C 66 % 1013,5 hPa 0,0 l/m 0,0 km/h (0 Bft) SW 225 2,7 C 0,0 C 0,0 km/h (0 Bft)
01.04.2014 21:20 8,3 C 67 % 1013,5 hPa 0,0 l/m 0,0 km/h (0 Bft) SW 225 2,5 C 0,0 C 0,0 km/h (0 Bft)
01.04.2014 21:25 8,4 C 66 % 1013,2 hPa 0,0 l/m 0,0 km/h (0 Bft) SW 225 2,4 C 0,0 C 0,0 km/h (0 Bft)
01.04.2014 21:30 8,3 C 66 % 1013,2 hPa 0,0 l/m 0,0 km/h (0 Bft) SW 225 2,3 C 0,0 C 0,0 km/h (0 Bft)
01.04.2014 21:35 7,7 C 67 % 1013,2 hPa 0,0 l/m 0,0 km/h (0 Bft) SW 225 2,0 C 0,0 C 0,0 km/h (0 Bft)
01.04.2014 21:40 7,6 C 67 % 1013,2 hPa 0,0 l/m 0,0 km/h (0 Bft) SW 225 1,9 C 0,0 C 0,0 km/h (0 Bft)
01.04.2014 21:45 7,5 C 67 % 1013,1 hPa 0,0 l/m 0,0 km/h (0 Bft) SW 225 1,8 C 0,0 C 0,0 km/h (0 Bft)
01.04.2014 21:50 7,6 C 68 % 1013,1 hPa 0,0 l/m 0,0 km/h (0 Bft) SW 225 2,1 C 0,0 C 0,0 km/h (0 Bft)
01.04.2014 21:55 7,1 C 68 % 1013,1 hPa 0,0 l/m 0,0 km/h (0 Bft) SW 225 1,6 C 0,0 C 0,0 km/h (0 Bft)
01.04.2014 22:00 6,5 C 68 % 1013,1 hPa 0,0 l/m 0,0 km/h (0 Bft) SW 225 1,0 C 0,0 C 0,0 km/h (0 Bft)
01.04.2014 22:05 6,4 C 68 % 1013,2 hPa 0,0 l/m 0,0 km/h (0 Bft) SW 225 0,9 C 0,0 C 0,0 km/h (0 Bft)
01.04.2014 22:10 6,3 C 69 % 1013,2 hPa 0,0 l/m 0,0 km/h (0 Bft) SW 225 1,0 C 0,0 C 0,0 km/h (0 Bft)
01.04.2014 22:15 6,2 C 69 % 1013,2 hPa 0,0 l/m 0,0 km/h (0 Bft) SW 225 0,9 C 0,0 C 0,0 km/h (0 Bft)
01.04.2014 22:20 6,0 C 69 % 1013,2 hPa 0,0 l/m 0,0 km/h (0 Bft) SW 225 0,8 C 0,0 C 0,0 km/h (0 Bft)
01.04.2014 22:25 5,8 C 70 % 1013,2 hPa 0,0 l/m 0,0 km/h (0 Bft) SW 225 0,8 C 0,0 C 0,0 km/h (0 Bft)
01.04.2014 22:30 5,6 C 71 % 1013,2 hPa 0,0 l/m 0,0 km/h (0 Bft) SW 225 0,8 C 0,0 C 0,0 km/h (0 Bft)
01.04.2014 22:35 5,8 C 71 % 1013,2 hPa 0,0 l/m 0,0 km/h (0 Bft) SW 225 1,0 C 0,0 C 0,0 km/h (0 Bft)
01.04.2014 22:40 5,6 C 72 % 1013,2 hPa 0,0 l/m 0,0 km/h (0 Bft) SW 225 1,0 C 0,0 C 0,0 km/h (0 Bft)
01.04.2014 22:45 5,7 C 73 % 1013,1 hPa 0,0 l/m 0,0 km/h (0 Bft) SW 225 1,2 C 0,0 C 0,0 km/h (0 Bft)
01.04.2014 22:50 5,8 C 74 % 1013,1 hPa 0,0 l/m 0,0 km/h (0 Bft) SW 225 1,5 C 0,0 C 0,0 km/h (0 Bft)
01.04.2014 22:55 6,0 C 73 % 1013,1 hPa 0,0 l/m 0,0 km/h (0 Bft) SW 225 1,5 C 0,0 C 0,0 km/h (0 Bft)
01.04.2014 23:00 5,8 C 74 % 1013,1 hPa 0,0 l/m 0,0 km/h (0 Bft) SW 225 1,5 C 0,0 C 0,0 km/h (0 Bft)
01.04.2014 23:05 5,8 C 73 % 1013,1 hPa 0,0 l/m 0,0 km/h (0 Bft) SW 225 1,3 C 0,0 C 0,0 km/h (0 Bft)
01.04.2014 23:10 5,7 C 73 % 1013,1 hPa 0,0 l/m 0,0 km/h (0 Bft) SW 225 1,2 C 0,0 C 0,0 km/h (0 Bft)
01.04.2014 23:15 5,9 C 74 % 1013,1 hPa 0,0 l/m 0,0 km/h (0 Bft) SW 225 1,6 C 0,0 C 0,0 km/h (0 Bft)
01.04.2014 23:20 5,9 C 75 % 1013,1 hPa 0,0 l/m 0,0 km/h (0 Bft) SW 225 1,8 C 0,0 C 0,0 km/h (0 Bft)
01.04.2014 23:25 5,8 C 74 % 1013,1 hPa 0,0 l/m 0,0 km/h (0 Bft) SW 225 1,5 C 0,0 C 0,0 km/h (0 Bft)
01.04.2014 23:30 5,9 C 75 % 1013,1 hPa 0,0 l/m 0,0 km/h (0 Bft) SW 225 1,8 C 0,0 C 0,0 km/h (0 Bft)
01.04.2014 23:35 5,9 C 75 % 1013,1 hPa 0,0 l/m 0,0 km/h (0 Bft) SW 225 1,8 C 0,0 C 0,0 km/h (0 Bft)
01.04.2014 23:40 5,8 C 75 % 1013,1 hPa 0,0 l/m 0,0 km/h (0 Bft) SW 225 1,7 C 0,0 C 0,0 km/h (0 Bft)
01.04.2014 23:45 5,7 C 75 % 1013,1 hPa 0,0 l/m 0,0 km/h (0 Bft) SW 225 1,6 C 0,0 C 0,0 km/h (0 Bft)
01.04.2014 23:50 5,5 C 75 % 1013,1 hPa 0,0 l/m 0,0 km/h (0 Bft) SW 225 1,4 C 0,0 C 0,0 km/h (0 Bft)
01.04.2014 23:55 5,4 C 75 % 1013,1 hPa 0,0 l/m 0,0 km/h (0 Bft) SW 225 1,3 C 0,0 C 0,0 km/h (0 Bft)
_ Min-Zeit 06:15 16:13 17:58 - 23:55 - - 18:48 23:55 23:55
Minimum _ 1,1 C 30 % 1012,6 hPa - 0,0 km/h (0 Bft) - - -1,4 C 0,0 C 0,0 km/h (0 Bft)
_ Max-Zeit 13:45 07:20 12:05 23:55 23:55 - - 09:40 15:55 23:55
Maximum _ 20,9 C 89 % 1016,1 hPa 0,0 l/m 0,0 km/h
SW (0 Bft)
- - 6,8 C 16,1 C 0,0 km/h
SW (0 Bft)
Durchschnitt _ 10,2 C 60 % 1014,4 hPa #0,0 l/m 0,0 km/h (0 Bft) - - - 1,5 C 10,7 C 0,0 km/h (0 Bft)